Regional Weather Roundup
Issued by NWS

Home | Current Version | Previous Version | Text Only | Print | Product List | Glossary On
Versions: 1 2 3 4 5 6 7 8 9 10 11 12 13 14 15 16 17 18 19 20 21 22 23 24 25 26 27 28 29 30 31 32 33 34 35 36 37 38 39 40 41 42 43 44 45 46 47 48 49 50
000
ASUS44 KOUN 211210
RWROK

WEATHER ROUNDUP FOR OKLAHOMA
NATIONAL WEATHER SERVICE NORMAN OK
600 AM CST SUN DEC 21 2014

NOTE: "FAIR" INDICATES FEW OR NO CLOUDS BELOW 12,000 FEET WITH NO
      SIGNIFICANT WEATHER AND/OR OBSTRUCTIONS TO VISIBILITY.

OKZ001>007-009>012-014-015-017-211300-
NORTHWEST OKLAHOMA AND THE PANHANDLE

CITY           SKY/WX    TMP DP  RH WIND       PRES   REMARKS
GAGE           CLOUDY    41  40  96 S14       29.91F FOG
6HR MIN TEMP:  40; 6HR MAX TEMP:  41;

$$

OKZ016-021>023-033>039-044-045-211300-
SOUTHWEST OKLAHOMA

CITY           SKY/WX    TMP DP  RH WIND       PRES   REMARKS
LAWTON/REGL    CLOUDY    44  41  89 S10       30.04S
6HR MIN TEMP:  43; 6HR MAX TEMP:  44;

LAWTON/FT SILL CLOUDY    44  41  91 S13       30.02F
FREDERICK      MOCLDY    43  40  89 SE10      29.99F FOG
CLINTON        CLOUDY    42  39  89 S22       29.97F
HOBART         CLOUDY    42  40  92 S17       29.99F
ALTUS AFB      CLOUDY    42  42 100 SE13      30.00
$$

OKZ018>020-024>031-211300-
CENTRAL OKLAHOMA

CITY           SKY/WX    TMP DP  RH WIND       PRES   REMARKS
OKLAHOMA CITY  CLOUDY    43  38  82 S10       30.03S
6HR MIN TEMP:  41; 6HR MAX TEMP:  43;

OKC/WILEY POST MOCLDY    43  38  82 S17G23    30.03F
OKC/TINKER AFB CLOUDY    42  39  87 S10       30.03
STILLWATER     CLOUDY    43  38  82 S14       30.04F
GUTHRIE        CLOUDY    42  38  85 S7        30.03S
$$

OKZ008-013-054>072-211300-
NORTHEAST OKLAHOMA

CITY           SKY/WX    TMP DP  RH WIND       PRES   REMARKS
TULSA          CLOUDY    43  42  97 S8        30.09F
6HR MIN TEMP:  42; 6HR MAX TEMP:  43; 6HR PCP: TRACE;

TULSA/JONES    CLOUDY    43  41  93 S6        30.09S
PONCA CITY     CLOUDY    43  37  79 S8G17     30.03F
BARTLESVILLE   CLOUDY    41  37  86 S8        30.08F
MUSKOGEE       CLOUDY    44  41  89 S5        30.12F
$$

OKZ032-040>043-046>053-073>077-211300-
SOUTH CENTRAL/SOUTHEAST OKLAHOMA

CITY           SKY/WX    TMP DP  RH WIND       PRES   REMARKS
ARDMORE/DWNTWN CLOUDY    45  43  93 S6        30.08S FOG
MCALESTER      CLOUDY    46  42  86 S5        30.11F
$$



USA.gov is the U.S. government's official web portal to all federal, state and local government web resources and services.